Time,TemperatureF,DewpointF,PressureIn,WindDirection,WindDirectionDegrees,WindSpeedMPH,WindSpeedGustMPH,Humidity,HourlyPrecipIn,Conditions,Clouds,dailyrainin,SoftwareType,DateUTC
2013-07-25 00:03:00,64.1,60.8,30.06,ENE,68,0.0,0.0,89,0.00,,CLR,0.00,VWS V14.01,2013-07-25 05:03:00,
2013-07-25 00:05:00,64.5,61.5,30.09,ENE,68,0.0,0.0,90,0.00,,CLR,0.00,VWS V14.01,2013-07-25 05:05:00,
2013-07-25 00:08:00,64.1,60.8,30.06,ENE,68,0.0,0.0,89,0.00,,CLR,0.00,VWS V14.01,2013-07-25 05:08:00,
2013-07-25 00:10:00,64.3,61.3,30.06,ENE,68,0.0,0.0,90,0.00,,CLR,0.00,VWS V14.01,2013-07-25 05:10:00,
2013-07-25 00:13:00,63.9,60.6,30.09,ENE,68,0.0,0.0,89,0.00,,CLR,0.00,VWS V14.01,2013-07-25 05:13:00,
2013-07-25 00:15:00,64.1,60.8,30.06,ENE,68,0.0,0.0,89,0.00,,CLR,0.00,VWS V14.01,2013-07-25 05:15:00,
2013-07-25 00:18:00,63.8,60.5,30.09,ENE,68,0.0,0.0,89,0.00,,CLR,0.00,VWS V14.01,2013-07-25 05:18:00,
2013-07-25 00:20:00,63.9,60.6,30.06,ENE,68,0.0,0.0,89,0.00,,CLR,0.00,VWS V14.01,2013-07-25 05:20:00,
2013-07-25 00:23:00,63.8,60.5,30.09,ENE,68,0.0,0.0,89,0.00,,CLR,0.00,VWS V14.01,2013-07-25 05:23:00,
2013-07-25 00:25:00,63.9,60.6,30.09,ENE,68,0.0,0.0,89,0.00,,CLR,0.00,VWS V14.01,2013-07-25 05:25:00,
2013-07-25 00:29:00,63.6,60.6,30.09,ENE,68,0.0,0.0,90,0.00,,CLR,0.00,VWS V14.01,2013-07-25 05:29:00,
2013-07-25 00:30:00,63.8,60.5,30.09,ENE,68,0.0,0.0,89,0.00,,OVC006,0.00,VWS V14.01,2013-07-25 05:30:00,
2013-07-25 00:34:00,63.6,60.6,30.09,ENE,68,0.0,0.0,90,0.00,,CLR,0.00,VWS V14.01,2013-07-25 05:34:00,
2013-07-25 00:35:00,63.8,60.8,30.09,ENE,68,0.0,0.0,90,0.00,,CLR,0.00,VWS V14.01,2013-07-25 05:35:00,
2013-07-25 00:39:00,63.4,60.4,30.09,ENE,68,0.0,0.0,90,0.00,,CLR,0.00,VWS V14.01,2013-07-25 05:39:00,
2013-07-25 00:40:00,63.6,60.6,30.09,ENE,68,0.0,0.0,90,0.00,,CLR,0.00,VWS V14.01,2013-07-25 05:40:00,
2013-07-25 00:44:00,63.2,60.5,30.09,ENE,68,0.0,0.0,91,0.00,,CLR,0.00,VWS V14.01,2013-07-25 05:44:00,
2013-07-25 00:45:00,63.4,60.4,30.09,ENE,68,0.0,0.0,90,0.00,,CLR,0.00,VWS V14.01,2013-07-25 05:45:00,
2013-07-25 00:49:00,63.2,60.5,30.09,ENE,68,0.0,0.0,91,0.00,,CLR,0.00,VWS V14.01,2013-07-25 05:49:00,
2013-07-25 00:50:00,63.4,60.4,30.09,ENE,68,0.0,0.0,90,0.00,,CLR,0.00,VWS V14.01,2013-07-25 05:50:00,
2013-07-25 00:54:00,63.2,60.9,30.09,ENE,68,0.0,0.0,92,0.00,,CLR,0.00,VWS V14.01,2013-07-25 05:54:00,
2013-07-25 00:55:00,63.2,60.5,30.09,ENE,68,0.0,0.0,91,0.00,,OVC006,0.00,VWS V14.01,2013-07-25 05:55:00,
2013-07-25 00:59:00,63.2,60.5,29.94,ENE,68,0.0,0.0,91,0.00,,CLR,0.00,VWS V14.01,2013-07-25 05:59:00,
2013-07-25 01:00:00,63.2,60.5,30.09,ENE,68,0.0,0.0,91,0.00,,CLR,0.00,VWS V14.01,2013-07-25 06:00:00,
2013-07-25 01:04:00,63.0,60.4,29.94,ENE,68,0.0,0.0,91,0.00,,CLR,0.00,VWS V14.01,2013-07-25 06:04:00,
2013-07-25 01:05:00,63.2,60.9,30.09,ENE,68,0.0,0.0,92,0.00,,CLR,0.00,VWS V14.01,2013-07-25 06:05:00,
2013-07-25 01:09:00,62.9,60.2,29.94,ENE,68,0.0,0.0,91,0.00,,CLR,0.00,VWS V14.01,2013-07-25 06:09:00,
2013-07-25 01:10:00,63.2,60.5,29.94,ENE,68,0.0,0.0,91,0.00,,CLR,0.00,VWS V14.01,2013-07-25 06:10:00,
2013-07-25 01:14:00,62.9,60.5,30.00,ENE,68,0.0,0.0,92,0.00,,CLR,0.00,VWS V14.01,2013-07-25 06:14:00,
2013-07-25 01:15:00,63.0,60.4,29.94,ENE,68,0.0,0.0,91,0.00,,CLR,0.00,VWS V14.01,2013-07-25 06:15:00,
2013-07-25 01:19:00,62.9,60.2,30.00,ENE,68,0.0,0.0,91,0.00,,CLR,0.00,VWS V14.01,2013-07-25 06:19:00,
2013-07-25 01:20:00,62.9,60.2,29.94,ENE,68,0.0,0.0,91,0.00,,CLR,0.00,VWS V14.01,2013-07-25 06:20:00,
2013-07-25 01:25:00,62.7,60.0,30.00,ENE,68,0.0,0.0,91,0.00,,CLR,0.00,VWS V14.01,2013-07-25 06:25:00,
2013-07-25 01:30:00,62.7,59.7,29.94,ENE,68,0.0,0.0,90,0.00,,CLR,0.00,VWS V14.01,2013-07-25 06:30:00,
2013-07-25 01:35:00,62.7,60.0,29.94,ENE,68,0.0,0.0,91,0.00,,CLR,0.00,VWS V14.01,2013-07-25 06:35:00,
2013-07-25 01:40:00,62.5,59.5,29.94,NE,45,0.0,0.0,90,0.00,,CLR,0.00,VWS V14.01,2013-07-25 06:40:00,
2013-07-25 01:45:00,62.3,59.3,29.91,NNE,22,0.0,0.0,90,0.00,,CLR,0.00,VWS V14.01,2013-07-25 06:45:00,
2013-07-25 01:50:00,62.3,59.0,29.91,ENE,68,0.0,0.0,89,0.00,,CLR,0.00,VWS V14.01,2013-07-25 06:50:00,
2013-07-25 01:55:00,62.3,58.7,29.91,ENE,68,0.0,0.0,88,0.00,,CLR,0.00,VWS V14.01,2013-07-25 06:55:00,
2013-07-25 02:00:00,62.1,58.5,29.85,ENE,68,0.0,0.0,88,0.00,,CLR,0.00,VWS V14.01,2013-07-25 07:00:00,
2013-07-25 02:05:00,62.1,58.5,29.85,ENE,68,0.0,0.0,88,0.00,,CLR,0.00,VWS V14.01,2013-07-25 07:05:00,
2013-07-25 02:10:00,62.0,58.7,29.85,ENE,68,0.0,0.0,89,0.00,,CLR,0.00,VWS V14.01,2013-07-25 07:10:00,
2013-07-25 02:15:00,62.0,58.7,29.79,NE,45,0.0,0.0,89,0.00,,CLR,0.00,VWS V14.01,2013-07-25 07:15:00,
2013-07-25 02:20:00,61.8,58.5,29.79,NE,45,0.0,0.0,89,0.00,,CLR,0.00,VWS V14.01,2013-07-25 07:20:00,
2013-07-25 02:25:00,61.6,58.3,29.79,NE,45,0.0,0.0,89,0.00,,CLR,0.00,VWS V14.01,2013-07-25 07:25:00,
2013-07-25 02:30:00,61.6,58.3,29.82,NE,45,0.0,0.0,89,0.00,,CLR,0.00,VWS V14.01,2013-07-25 07:30:00,
2013-07-25 02:35:00,61.4,58.5,29.82,NE,45,0.0,0.0,90,0.00,,CLR,0.00,VWS V14.01,2013-07-25 07:35:00,
2013-07-25 02:40:00,61.1,58.4,29.82,NE,45,0.0,0.0,91,0.00,,CLR,0.00,VWS V14.01,2013-07-25 07:40:00,
2013-07-25 02:45:00,60.9,58.2,29.76,NE,45,0.0,0.0,91,0.00,,CLR,0.00,VWS V14.01,2013-07-25 07:45:00,
2013-07-25 02:50:00,60.7,58.1,29.76,NE,45,0.0,0.0,91,0.00,,CLR,0.00,VWS V14.01,2013-07-25 07:50:00,
2013-07-25 02:55:00,60.3,58.0,29.76,NE,45,0.0,0.0,92,0.00,,CLR,0.00,VWS V14.01,2013-07-25 07:55:00,
2013-07-25 03:00:00,60.3,58.0,29.74,NE,45,0.0,0.0,92,0.00,,CLR,0.00,VWS V14.01,2013-07-25 08:00:00,
2013-07-25 03:05:00,60.3,58.3,29.74,NE,45,0.0,0.0,93,0.00,,CLR,0.00,VWS V14.01,2013-07-25 08:05:00,
2013-07-25 03:10:00,60.2,58.1,29.74,NE,45,0.0,0.0,93,0.00,,CLR,0.00,VWS V14.01,2013-07-25 08:10:00,
2013-07-25 03:15:00,60.0,58.0,29.71,NE,45,0.0,0.0,93,0.00,,CLR,0.00,VWS V14.01,2013-07-25 08:15:00,
2013-07-25 03:20:00,60.0,58.0,29.71,NE,45,0.0,0.0,93,0.00,,CLR,0.00,VWS V14.01,2013-07-25 08:20:00,
2013-07-25 03:25:00,60.0,58.0,29.71,NE,45,0.0,0.0,93,0.00,,CLR,0.00,VWS V14.01,2013-07-25 08:25:00,
2013-07-25 03:30:00,59.6,57.9,29.71,NE,45,0.0,0.0,94,0.00,,CLR,0.00,VWS V14.01,2013-07-25 08:30:00,
2013-07-25 03:35:00,59.6,57.9,29.71,NE,45,0.0,0.0,94,0.00,,CLR,0.00,VWS V14.01,2013-07-25 08:35:00,
2013-07-25 03:40:00,59.6,57.9,29.71,NE,45,0.0,0.0,94,0.00,,CLR,0.00,VWS V14.01,2013-07-25 08:40:00,
2013-07-25 03:45:00,59.6,57.9,29.68,NE,45,0.0,0.0,94,0.00,,CLR,0.00,VWS V14.01,2013-07-25 08:45:00,
2013-07-25 03:50:00,59.6,57.9,29.71,NE,45,0.0,0.0,94,0.00,,CLR,0.00,VWS V14.01,2013-07-25 08:50:00,
2013-07-25 03:51:00,59.4,58.0,29.68,NE,45,0.0,0.0,95,0.00,,CLR,0.00,VWS V14.01,2013-07-25 08:51:00,
2013-07-25 03:55:00,59.6,57.9,29.68,NE,45,0.0,0.0,94,0.00,,CLR,0.00,VWS V14.01,2013-07-25 08:55:00,
2013-07-25 03:56:00,59.4,58.0,29.62,NE,45,0.0,0.0,95,0.00,,CLR,0.00,VWS V14.01,2013-07-25 08:56:00,
2013-07-25 04:00:00,59.4,58.0,29.68,NE,45,0.0,0.0,95,0.00,,CLR,0.00,VWS V14.01,2013-07-25 09:00:00,
2013-07-25 04:01:00,59.4,57.7,29.62,NE,45,0.0,0.0,94,0.00,,CLR,0.00,VWS V14.01,2013-07-25 09:01:00,
2013-07-25 04:05:00,59.4,58.0,29.68,NE,45,0.0,0.0,95,0.00,,OVC006,0.00,VWS V14.01,2013-07-25 09:05:00,
2013-07-25 04:06:00,59.4,57.7,29.62,NE,45,0.0,0.0,94,0.00,,CLR,0.00,VWS V14.01,2013-07-25 09:06:00,
2013-07-25 04:10:00,59.4,57.7,29.62,NE,45,0.0,0.0,94,0.00,,CLR,0.00,VWS V14.01,2013-07-25 09:10:00,
2013-07-25 04:11:00,59.3,57.5,29.62,NE,45,0.0,0.0,94,0.00,,CLR,0.00,VWS V14.01,2013-07-25 09:11:00,
2013-07-25 04:15:00,59.4,57.7,29.62,NE,45,0.0,0.0,94,0.00,,CLR,0.00,VWS V14.01,2013-07-25 09:15:00,
2013-07-25 04:16:00,59.1,57.4,29.62,NE,45,0.0,0.0,94,0.00,,CLR,0.00,VWS V14.01,2013-07-25 09:16:00,
2013-07-25 04:20:00,59.3,57.5,29.62,NE,45,0.0,0.0,94,0.00,,CLR,0.00,VWS V14.01,2013-07-25 09:20:00,
2013-07-25 04:21:00,59.1,57.4,29.62,NE,45,0.0,0.0,94,0.00,,CLR,0.00,VWS V14.01,2013-07-25 09:21:00,
2013-07-25 04:25:00,59.3,57.5,29.62,NE,45,0.0,0.0,94,0.00,,CLR,0.00,VWS V14.01,2013-07-25 09:25:00,
2013-07-25 04:27:00,59.1,57.4,29.56,NE,45,0.0,0.0,94,0.00,,CLR,0.00,VWS V14.01,2013-07-25 09:27:00,
2013-07-25 04:30:00,59.1,57.4,29.62,NE,45,0.0,0.0,94,0.00,,CLR,0.00,VWS V14.01,2013-07-25 09:30:00,
2013-07-25 04:32:00,59.1,57.4,29.56,NE,45,0.0,0.0,94,0.00,,CLR,0.00,VWS V14.01,2013-07-25 09:32:00,
2013-07-25 04:35:00,59.1,57.4,29.62,NE,45,0.0,0.0,94,0.00,,CLR,0.00,VWS V14.01,2013-07-25 09:35:00,
2013-07-25 04:37:00,58.9,57.2,29.56,NE,45,0.0,0.0,94,0.00,,CLR,0.00,VWS V14.01,2013-07-25 09:37:00,
2013-07-25 04:40:00,59.1,57.4,29.56,NE,45,0.0,0.0,94,0.00,,CLR,0.00,VWS V14.01,2013-07-25 09:40:00,
2013-07-25 04:42:00,58.9,57.2,29.47,NE,45,0.0,0.0,94,0.00,,CLR,0.00,VWS V14.01,2013-07-25 09:42:00,
2013-07-25 04:45:00,58.9,57.2,29.56,NE,45,0.0,0.0,94,0.00,,OVC006,0.00,VWS V14.01,2013-07-25 09:45:00,
2013-07-25 04:47:00,58.7,57.0,29.47,NE,45,0.0,0.0,94,0.00,,CLR,0.00,VWS V14.01,2013-07-25 09:47:00,
2013-07-25 04:50:00,58.9,57.5,29.56,NE,45,0.0,0.0,95,0.00,,CLR,0.00,VWS V14.01,2013-07-25 09:50:00,
2013-07-25 04:52:00,58.7,57.0,29.47,NE,45,0.0,0.0,94,0.00,,CLR,0.00,VWS V14.01,2013-07-25 09:52:00,
2013-07-25 04:55:00,58.7,57.0,29.47,NE,45,0.0,0.0,94,0.00,,CLR,0.00,VWS V14.01,2013-07-25 09:55:00,
2013-07-25 04:57:00,58.5,57.1,29.47,NE,45,0.0,0.0,95,0.00,,CLR,0.00,VWS V14.01,2013-07-25 09:57:00,
2013-07-25 05:00:00,58.7,57.3,29.47,NE,45,0.0,0.0,95,0.00,,CLR,0.00,VWS V14.01,2013-07-25 10:00:00,
2013-07-25 05:02:00,58.4,56.9,29.47,NE,45,0.0,0.0,95,0.00,,CLR,0.00,VWS V14.01,2013-07-25 10:02:00,
2013-07-25 05:05:00,58.7,57.3,29.47,NE,45,0.0,0.0,95,0.00,,CLR,0.00,VWS V14.01,2013-07-25 10:05:00,
2013-07-25 05:07:00,58.2,56.8,29.47,NE,45,0.0,0.0,95,0.00,,CLR,0.00,VWS V14.01,2013-07-25 10:07:00,
2013-07-25 05:10:00,58.5,57.1,29.47,NE,45,0.0,0.0,95,0.00,,CLR,0.00,VWS V14.01,2013-07-25 10:10:00,
2013-07-25 05:12:00,58.2,56.8,29.56,NE,45,0.0,0.0,95,0.00,,CLR,0.00,VWS V14.01,2013-07-25 10:12:00,
2013-07-25 05:15:00,58.4,56.9,29.47,NE,45,0.0,0.0,95,0.00,,CLR,0.00,VWS V14.01,2013-07-25 10:15:00,
2013-07-25 05:17:00,58.0,56.6,29.56,NE,45,0.0,0.0,95,0.00,,CLR,0.00,VWS V14.01,2013-07-25 10:17:00,
2013-07-25 05:20:00,58.2,56.8,29.47,NE,45,0.0,0.0,95,0.00,,OVC006,0.00,VWS V14.01,2013-07-25 10:20:00,
2013-07-25 05:22:00,58.0,56.6,29.56,NE,45,0.0,0.0,95,0.00,,CLR,0.00,VWS V14.01,2013-07-25 10:22:00,
2013-07-25 05:25:00,58.2,56.8,29.56,NE,45,0.0,0.0,95,0.00,,CLR,0.00,VWS V14.01,2013-07-25 10:25:00,
2013-07-25 05:27:00,57.8,56.7,29.56,NE,45,0.0,0.0,96,0.00,,CLR,0.00,VWS V14.01,2013-07-25 10:27:00,
2013-07-25 05:30:00,58.0,56.6,29.56,NE,45,0.0,0.0,95,0.00,,CLR,0.00,VWS V14.01,2013-07-25 10:30:00,
2013-07-25 05:35:00,58.0,56.6,29.56,NE,45,0.0,0.0,95,0.00,,CLR,0.00,VWS V14.01,2013-07-25 10:35:00,
2013-07-25 05:40:00,57.8,56.7,29.56,NE,45,0.0,0.0,96,0.00,,CLR,0.00,VWS V14.01,2013-07-25 10:40:00,
2013-07-25 07:20:00,58.0,58.0,29.50,NE,45,0.0,0.0,100,0.00,,CLR,0.00,VWS V14.01,2013-07-25 12:20:00,
2013-07-25 07:25:00,58.2,58.2,29.50,NE,45,0.0,0.0,100,0.00,,CLR,0.00,VWS V14.01,2013-07-25 12:25:00,
2013-07-25 07:30:00,58.2,58.2,29.50,NE,45,0.0,0.0,100,0.00,,CLR,0.00,VWS V14.01,2013-07-25 12:30:00,
2013-07-25 07:35:00,58.4,58.4,30.12,NE,45,0.0,0.0,100,0.00,,CLR,0.00,VWS V14.01,2013-07-25 12:35:00,
2013-07-25 07:40:00,58.5,58.5,30.12,NE,45,0.0,0.0,100,0.00,,CLR,0.00,VWS V14.01,2013-07-25 12:40:00,
2013-07-25 07:45:00,58.9,58.9,30.12,NE,45,0.0,0.0,100,0.00,,CLR,0.00,VWS V14.01,2013-07-25 12:45:00,
2013-07-25 07:50:00,59.1,59.1,30.15,NE,45,0.0,0.0,100,0.00,,CLR,0.00,VWS V14.01,2013-07-25 12:50:00,
2013-07-25 07:55:00,59.4,59.4,30.15,NE,45,0.0,0.0,100,0.00,,CLR,0.00,VWS V14.01,2013-07-25 12:55:00,
2013-07-25 08:00:00,59.6,59.6,30.15,NE,45,0.0,0.0,100,0.00,,CLR,0.00,VWS V14.01,2013-07-25 13:00:00,
2013-07-25 08:05:00,60.0,60.0,30.15,NE,45,0.0,0.0,100,0.00,,CLR,0.00,VWS V14.01,2013-07-25 13:05:00,
2013-07-25 08:10:00,60.9,60.9,30.15,NE,45,0.0,0.0,100,0.00,,OVC006,0.00,VWS V14.01,2013-07-25 13:10:00,
2013-07-25 08:11:00,60.7,60.7,30.15,NE,45,0.0,0.0,100,0.00,,CLR,0.00,VWS V14.01,2013-07-25 13:11:00,
2013-07-25 08:15:00,61.1,61.1,30.12,NE,45,0.0,0.0,100,0.00,,OVC006,0.00,VWS V14.01,2013-07-25 13:15:00,
2013-07-25 08:16:00,61.1,61.1,30.15,NE,45,0.0,0.0,100,0.00,,CLR,0.00,VWS V14.01,2013-07-25 13:16:00,
2013-07-25 08:20:00,61.2,61.2,30.12,NE,45,0.0,0.0,100,0.00,,CLR,0.00,VWS V14.01,2013-07-25 13:20:00,
2013-07-25 08:21:00,61.2,61.2,30.12,NE,45,0.0,0.0,100,0.00,,CLR,0.00,VWS V14.01,2013-07-25 13:21:00,
2013-07-25 08:25:00,61.6,61.0,30.12,NE,45,0.0,0.0,98,0.00,,CLR,0.00,VWS V14.01,2013-07-25 13:25:00,
2013-07-25 08:27:00,61.6,61.0,30.12,NE,45,0.0,0.0,98,0.00,,CLR,0.00,VWS V14.01,2013-07-25 13:27:00,
2013-07-25 08:30:00,62.0,62.0,30.15,NE,45,0.0,0.0,100,0.00,,CLR,0.00,VWS V14.01,2013-07-25 13:30:00,
2013-07-25 08:32:00,62.0,62.0,30.15,NE,45,0.0,0.0,100,0.00,,CLR,0.00,VWS V14.01,2013-07-25 13:32:00,
2013-07-25 08:35:00,62.3,62.0,30.15,NE,45,0.0,0.0,99,0.00,,CLR,0.00,VWS V14.01,2013-07-25 13:35:00,
2013-07-25 08:37:00,62.3,62.0,30.15,NE,45,0.0,0.0,99,0.00,,CLR,0.00,VWS V14.01,2013-07-25 13:37:00,
2013-07-25 08:40:00,62.7,61.5,30.15,ENE,68,0.0,0.0,96,0.00,,OVC006,0.00,VWS V14.01,2013-07-25 13:40:00,
2013-07-25 08:42:00,62.7,61.5,30.15,NE,45,0.0,0.0,96,0.00,,CLR,0.00,VWS V14.01,2013-07-25 13:42:00,
2013-07-25 08:45:00,63.0,61.6,30.12,NE,45,0.0,0.0,95,0.00,,CLR,0.00,VWS V14.01,2013-07-25 13:45:00,
2013-07-25 08:47:00,63.0,61.6,30.12,NE,45,0.0,0.0,95,0.00,,CLR,0.00,VWS V14.01,2013-07-25 13:47:00,
2013-07-25 08:50:00,63.2,62.1,30.12,NE,45,0.0,0.0,96,0.00,,CLR,0.00,VWS V14.01,2013-07-25 13:50:00,
2013-07-25 08:52:00,63.2,62.1,30.12,NE,45,0.0,0.0,96,0.00,,CLR,0.00,VWS V14.01,2013-07-25 13:52:00,
2013-07-25 08:55:00,63.6,61.8,30.12,ENE,68,0.0,0.0,94,0.00,,CLR,0.00,VWS V14.01,2013-07-25 13:55:00,
2013-07-25 08:57:00,63.6,61.8,30.12,ENE,68,0.0,0.0,94,0.00,,CLR,0.00,VWS V14.01,2013-07-25 13:57:00,
2013-07-25 09:00:00,63.9,62.2,30.15,ENE,68,0.0,0.0,94,0.00,,CLR,0.00,VWS V14.01,2013-07-25 14:00:00,
2013-07-25 09:02:00,63.9,62.2,30.15,ENE,68,0.0,0.0,94,0.00,,CLR,0.00,VWS V14.01,2013-07-25 14:02:00,
2013-07-25 09:05:00,64.3,62.5,30.15,ENE,68,0.0,0.0,94,0.00,,OVC006,0.00,VWS V14.01,2013-07-25 14:05:00,
2013-07-25 09:07:00,64.5,62.7,30.15,ENE,68,0.0,0.0,94,0.00,,CLR,0.00,VWS V14.01,2013-07-25 14:07:00,
2013-07-25 09:10:00,64.7,62.9,30.15,ENE,68,0.0,0.0,94,0.00,,CLR,0.00,VWS V14.01,2013-07-25 14:10:00,
2013-07-25 09:12:00,64.7,62.9,30.15,ENE,68,0.0,0.0,94,0.00,,CLR,0.00,VWS V14.01,2013-07-25 14:12:00,
2013-07-25 09:15:00,64.8,63.1,30.15,ENE,68,0.0,0.0,94,0.00,,OVC006,0.00,VWS V14.01,2013-07-25 14:15:00,
2013-07-25 09:17:00,64.8,63.1,30.15,ENE,68,0.0,0.0,94,0.00,,CLR,0.00,VWS V14.01,2013-07-25 14:17:00,
2013-07-25 09:20:00,65.2,63.4,30.15,ENE,68,0.0,0.0,94,0.00,,OVC006,0.00,VWS V14.01,2013-07-25 14:20:00,
2013-07-25 09:22:00,65.2,63.4,30.15,ENE,68,0.0,0.0,94,0.00,,CLR,0.00,VWS V14.01,2013-07-25 14:22:00,
2013-07-25 09:25:00,65.7,64.0,30.15,ENE,68,0.0,0.0,94,0.00,,CLR,0.00,VWS V14.01,2013-07-25 14:25:00,
2013-07-25 09:27:00,65.7,64.0,30.15,ENE,68,0.0,0.0,94,0.00,,CLR,0.00,VWS V14.01,2013-07-25 14:27:00,
2013-07-25 09:30:00,66.1,64.0,30.18,ENE,68,0.0,0.0,93,0.00,,CLR,0.00,VWS V14.01,2013-07-25 14:30:00,
2013-07-25 09:33:00,66.1,64.0,30.18,ENE,68,0.0,0.0,93,0.00,,CLR,0.00,VWS V14.01,2013-07-25 14:33:00,
2013-07-25 09:35:00,66.5,63.8,30.18,ENE,68,0.0,0.0,91,0.00,,CLR,0.00,VWS V14.01,2013-07-25 14:35:00,
2013-07-25 09:38:00,66.6,64.2,30.18,ENE,68,0.0,0.0,92,0.00,,CLR,0.00,VWS V14.01,2013-07-25 14:38:00,
2013-07-25 09:40:00,67.0,64.3,30.18,NNE,22,0.0,0.0,91,0.00,,CLR,0.00,VWS V14.01,2013-07-25 14:40:00,
2013-07-25 09:43:00,67.0,64.3,30.18,NNE,22,0.0,0.0,91,0.00,,CLR,0.00,VWS V14.01,2013-07-25 14:43:00,
2013-07-25 09:45:00,67.4,64.3,30.18,NE,45,0.0,0.0,90,0.00,,CLR,0.00,VWS V14.01,2013-07-25 14:45:00,
2013-07-25 09:48:00,67.4,64.3,30.18,NE,45,0.0,0.0,90,0.00,,CLR,0.00,VWS V14.01,2013-07-25 14:48:00,
2013-07-25 09:50:00,67.7,64.4,30.18,NNE,22,0.0,0.0,89,0.00,,CLR,0.00,VWS V14.01,2013-07-25 14:50:00,
2013-07-25 09:53:00,67.9,64.2,30.18,NNE,22,0.0,0.0,88,0.00,,CLR,0.00,VWS V14.01,2013-07-25 14:53:00,
2013-07-25 09:55:00,68.1,64.1,30.18,East,90,0.0,0.0,87,0.00,,CLR,0.00,VWS V14.01,2013-07-25 14:55:00,
2013-07-25 09:58:00,68.4,64.1,30.18,South,180,0.0,0.0,86,0.00,,CLR,0.00,VWS V14.01,2013-07-25 14:58:00,
2013-07-25 10:00:00,68.4,64.4,30.15,SSW,202,0.0,0.0,87,0.00,,CLR,0.00,VWS V14.01,2013-07-25 15:00:00,
2013-07-25 10:03:00,68.6,63.9,30.15,SSW,202,0.0,0.0,85,0.00,,CLR,0.00,VWS V14.01,2013-07-25 15:03:00,
2013-07-25 10:05:00,69.0,64.0,30.15,SSW,202,0.0,0.0,84,0.00,,CLR,0.00,VWS V14.01,2013-07-25 15:05:00,
2013-07-25 10:08:00,69.0,64.0,30.15,SW,225,0.0,0.0,84,0.00,,CLR,0.00,VWS V14.01,2013-07-25 15:08:00,
2013-07-25 10:10:00,69.3,64.3,30.15,WSW,248,0.0,0.0,84,0.00,,CLR,0.00,VWS V14.01,2013-07-25 15:10:00,
2013-07-25 10:13:00,69.5,64.1,30.15,WSW,248,0.0,0.0,83,0.00,,CLR,0.00,VWS V14.01,2013-07-25 15:13:00,
2013-07-25 10:15:00,69.5,64.1,30.15,WSW,248,0.0,0.0,83,0.00,,CLR,0.00,VWS V14.01,2013-07-25 15:15:00,
2013-07-25 10:18:00,69.7,64.3,30.15,WSW,248,0.0,0.0,83,0.00,,CLR,0.00,VWS V14.01,2013-07-25 15:18:00,
2013-07-25 10:20:00,69.9,64.5,30.15,NW,315,0.0,0.0,83,0.00,,CLR,0.00,VWS V14.01,2013-07-25 15:20:00,
2013-07-25 10:23:00,70.1,64.3,30.15,NW,315,0.0,0.0,82,0.00,,CLR,0.00,VWS V14.01,2013-07-25 15:23:00,
2013-07-25 10:25:00,70.1,64.3,30.15,NE,45,0.0,0.0,82,0.00,,CLR,0.00,VWS V14.01,2013-07-25 15:25:00,
2013-07-25 10:28:00,70.1,64.3,30.15,NNW,338,0.0,0.0,82,0.00,,CLR,0.00,VWS V14.01,2013-07-25 15:28:00,
2013-07-25 10:30:00,70.1,64.3,30.15,ESE,112,0.0,0.0,82,0.00,,CLR,0.00,VWS V14.01,2013-07-25 15:30:00,
2013-07-25 10:33:00,70.1,64.3,30.15,East,90,0.0,0.0,82,0.00,,CLR,0.00,VWS V14.01,2013-07-25 15:33:00,
2013-07-25 10:35:00,70.1,64.3,30.15,ENE,68,0.0,0.0,82,0.00,,CLR,0.00,VWS V14.01,2013-07-25 15:35:00,
2013-07-25 10:38:00,70.1,64.3,30.15,ENE,68,0.0,0.0,82,0.00,,CLR,0.00,VWS V14.01,2013-07-25 15:38:00,
2013-07-25 10:40:00,70.1,64.3,30.15,ENE,68,0.0,0.0,82,0.00,,CLR,0.00,VWS V14.01,2013-07-25 15:40:00,
2013-07-25 10:43:00,70.1,64.3,30.15,WSW,248,0.0,0.0,82,0.00,,CLR,0.00,VWS V14.01,2013-07-25 15:43:00,
2013-07-25 10:45:00,70.1,64.3,30.15,WSW,248,0.0,0.0,82,0.00,,CLR,0.00,VWS V14.01,2013-07-25 15:45:00,
2013-07-25 10:48:00,70.1,64.3,30.15,WSW,248,0.0,0.0,82,0.00,,CLR,0.00,VWS V14.01,2013-07-25 15:48:00,
2013-07-25 10:50:00,70.1,64.3,30.15,WNW,292,0.0,0.0,82,0.00,,CLR,0.00,VWS V14.01,2013-07-25 15:50:00,
2013-07-25 10:53:00,70.1,64.3,30.15,ENE,68,0.0,0.0,82,0.00,,CLR,0.00,VWS V14.01,2013-07-25 15:53:00,
2013-07-25 10:55:00,71.7,64.8,30.15,ENE,68,0.0,0.0,79,0.00,,CLR,0.00,VWS V14.01,2013-07-25 15:55:00,
2013-07-25 10:59:00,71.9,65.4,30.15,East,90,0.0,0.0,80,0.00,,CLR,0.00,VWS V14.01,2013-07-25 15:59:00,
2013-07-25 11:00:00,72.2,65.7,30.12,ENE,68,0.0,0.0,80,0.00,,CLR,0.00,VWS V14.01,2013-07-25 16:00:00,
2013-07-25 11:04:00,72.6,65.7,30.12,ENE,68,0.0,0.0,79,0.00,,CLR,0.00,VWS V14.01,2013-07-25 16:04:00,
2013-07-25 11:05:00,72.8,66.9,30.12,West,270,0.0,0.0,82,0.00,,CLR,0.00,VWS V14.01,2013-07-25 16:05:00,
2013-07-25 11:09:00,72.9,66.8,30.12,NNE,22,0.0,0.0,81,0.00,,CLR,0.00,VWS V14.01,2013-07-25 16:09:00,
2013-07-25 11:10:00,72.9,66.8,30.12,NNE,22,0.0,0.0,81,0.00,,CLR,0.00,VWS V14.01,2013-07-25 16:10:00,
2013-07-25 11:14:00,73.1,66.2,30.12,East,90,0.0,0.0,79,0.00,,CLR,0.00,VWS V14.01,2013-07-25 16:14:00,
2013-07-25 11:15:00,73.3,66.0,30.12,SSW,202,0.0,0.0,78,0.00,,CLR,0.00,VWS V14.01,2013-07-25 16:15:00,
2013-07-25 11:19:00,73.7,66.8,30.12,NW,315,0.0,0.0,79,0.00,,CLR,0.00,VWS V14.01,2013-07-25 16:19:00,
2013-07-25 11:20:00,73.7,66.4,30.12,East,90,0.0,0.0,78,0.00,,CLR,0.00,VWS V14.01,2013-07-25 16:20:00,
2013-07-25 11:24:00,73.7,65.2,30.12,SW,225,0.0,0.0,75,0.00,,CLR,0.00,VWS V14.01,2013-07-25 16:24:00,
2013-07-25 11:25:00,73.8,65.0,30.12,West,270,0.0,0.0,74,0.00,,CLR,0.00,VWS V14.01,2013-07-25 16:25:00,
2013-07-25 11:29:00,73.7,65.2,30.12,West,270,0.0,0.0,75,0.00,,CLR,0.00,VWS V14.01,2013-07-25 16:29:00,
2013-07-25 11:30:00,73.8,65.8,30.12,East,90,0.0,0.0,76,0.00,,CLR,0.00,VWS V14.01,2013-07-25 16:30:00,
2013-07-25 11:35:00,74.2,65.4,30.12,WSW,248,3.1,3.5,74,0.00,,CLR,0.00,VWS V14.01,2013-07-25 16:35:00,
2013-07-25 11:40:00,74.6,65.7,30.12,ENE,68,1.8,3.5,74,0.00,,CLR,0.00,VWS V14.01,2013-07-25 16:40:00,
2013-07-25 11:45:00,74.7,65.9,30.12,ESE,112,2.2,2.5,74,0.00,,CLR,0.00,VWS V14.01,2013-07-25 16:45:00,
2013-07-25 11:50:00,75.1,65.5,30.15,WNW,292,2.2,6.0,72,0.00,,CLR,0.00,VWS V14.01,2013-07-25 16:50:00,
2013-07-25 11:55:00,75.3,66.4,30.15,West,270,0.0,0.0,74,0.00,,CLR,0.00,VWS V14.01,2013-07-25 16:55:00,
2013-07-25 12:00:00,75.3,66.8,30.15,West,270,0.0,0.0,75,0.00,,CLR,0.00,VWS V14.01,2013-07-25 17:00:00,
2013-07-25 12:05:00,75.6,67.2,30.12,ENE,68,0.0,0.0,75,0.00,,CLR,0.00,VWS V14.01,2013-07-25 17:05:00,
2013-07-25 12:10:00,75.8,66.9,30.12,ENE,68,2.7,3.0,74,0.00,,CLR,0.00,VWS V14.01,2013-07-25 17:10:00,
2013-07-25 12:15:00,75.8,66.2,30.12,ENE,68,2.2,5.0,72,0.00,,CLR,0.00,VWS V14.01,2013-07-25 17:15:00,
2013-07-25 12:20:00,76.0,66.7,30.12,NE,45,0.0,0.0,73,0.00,,CLR,0.00,VWS V14.01,2013-07-25 17:20:00,
2013-07-25 12:25:00,76.2,67.3,30.12,ENE,68,4.5,6.0,74,0.00,,CLR,0.00,VWS V14.01,2013-07-25 17:25:00,
2013-07-25 12:30:00,76.2,66.9,30.12,NNE,22,2.2,4.5,73,0.00,,CLR,0.00,VWS V14.01,2013-07-25 17:30:00,
2013-07-25 12:35:00,76.2,64.4,30.15,WSW,248,4.0,5.5,67,0.00,,CLR,0.00,VWS V14.01,2013-07-25 17:35:00,
2013-07-25 12:40:00,76.4,65.9,30.15,NE,45,2.7,3.5,70,0.00,,CLR,0.00,VWS V14.01,2013-07-25 17:40:00,
2013-07-25 12:45:00,76.5,66.8,30.15,ENE,68,4.9,5.5,72,0.00,,CLR,0.00,VWS V14.01,2013-07-25 17:45:00,
2013-07-25 12:50:00,76.9,68.0,30.15,NNE,22,0.0,0.0,74,0.00,,CLR,0.00,VWS V14.01,2013-07-25 17:50:00,
2013-07-25 12:55:00,76.5,66.4,30.15,South,180,2.2,3.5,71,0.00,,CLR,0.00,VWS V14.01,2013-07-25 17:55:00,
2013-07-25 13:00:00,76.9,66.8,30.15,East,90,4.9,5.5,71,0.00,,CLR,0.00,VWS V14.01,2013-07-25 18:00:00,
2013-07-25 13:05:00,76.9,66.8,30.15,WNW,292,1.8,5.0,71,0.00,,CLR,0.00,VWS V14.01,2013-07-25 18:05:00,
2013-07-25 13:10:00,76.9,64.7,30.15,WSW,248,6.7,7.6,66,0.00,,CLR,0.00,VWS V14.01,2013-07-25 18:10:00,
2013-07-25 13:15:00,76.7,65.4,30.15,WSW,248,4.0,5.5,68,0.00,,CLR,0.00,VWS V14.01,2013-07-25 18:15:00,
2013-07-25 13:16:00,76.7,64.5,30.15,WSW,248,4.5,5.5,66,0.00,,CLR,0.00,VWS V14.01,2013-07-25 18:16:00,
2013-07-25 13:20:00,77.1,67.8,30.15,NE,45,4.9,5.5,73,0.00,,OVC006,0.00,VWS V14.01,2013-07-25 18:20:00,
2013-07-25 13:21:00,76.9,66.8,30.15,NE,45,2.2,2.5,71,0.00,,CLR,0.00,VWS V14.01,2013-07-25 18:21:00,
2013-07-25 13:25:00,77.3,67.9,30.15,NE,45,0.0,5.5,73,0.00,,OVC006,0.00,VWS V14.01,2013-07-25 18:25:00,
2013-07-25 13:26:00,77.3,67.9,30.15,NE,45,4.0,5.5,73,0.00,,CLR,0.00,VWS V14.01,2013-07-25 18:26:00,
2013-07-25 13:30:00,77.3,65.9,30.12,East,90,5.8,7.0,68,0.00,,CLR,0.00,VWS V14.01,2013-07-25 18:30:00,
2013-07-25 13:31:00,77.3,65.9,30.12,East,90,6.3,7.0,68,0.00,,CLR,0.00,VWS V14.01,2013-07-25 18:31:00,
2013-07-25 13:35:00,77.1,67.0,30.12,WSW,248,2.7,5.0,71,0.00,,CLR,0.00,VWS V14.01,2013-07-25 18:35:00,
2013-07-25 13:36:00,77.1,67.0,30.12,WSW,248,2.7,5.0,71,0.00,,CLR,0.00,VWS V14.01,2013-07-25 18:36:00,
2013-07-25 13:40:00,77.3,66.7,30.12,ENE,68,3.1,6.0,70,0.00,,CLR,0.00,VWS V14.01,2013-07-25 18:40:00,
2013-07-25 13:41:00,77.3,66.7,30.12,ENE,68,3.1,6.0,70,0.00,,CLR,0.00,VWS V14.01,2013-07-25 18:41:00,
2013-07-25 13:45:00,77.6,67.5,30.15,NNE,22,2.2,5.0,71,0.00,,OVC006,0.00,VWS V14.01,2013-07-25 18:45:00,
2013-07-25 13:46:00,77.6,67.5,30.15,NNE,22,2.7,5.0,71,0.00,,CLR,0.00,VWS V14.01,2013-07-25 18:46:00,
2013-07-25 13:50:00,77.4,66.9,30.15,NNW,338,4.0,5.5,70,0.00,,OVC006,0.00,VWS V14.01,2013-07-25 18:50:00,
2013-07-25 13:51:00,77.4,66.9,30.15,NNW,338,4.0,5.5,70,0.00,,CLR,0.00,VWS V14.01,2013-07-25 18:51:00,
2013-07-25 13:55:00,77.4,66.9,30.15,NNE,22,2.7,3.5,70,0.00,,CLR,0.00,VWS V14.01,2013-07-25 18:55:00,
2013-07-25 13:57:00,77.3,66.3,30.15,NNE,22,2.7,3.0,69,0.00,,CLR,0.00,VWS V14.01,2013-07-25 18:57:00,
2013-07-25 14:00:00,77.3,66.7,30.15,NNW,338,1.8,4.5,70,0.00,,OVC006,0.00,VWS V14.01,2013-07-25 19:00:00,
2013-07-25 14:02:00,77.3,66.7,30.15,NNE,22,0.0,3.0,70,0.00,,CLR,0.00,VWS V14.01,2013-07-25 19:02:00,
2013-07-25 14:05:00,77.3,66.3,30.15,NNE,22,0.0,0.0,69,0.00,,OVC006,0.00,VWS V14.01,2013-07-25 19:05:00,
2013-07-25 14:07:00,77.3,66.3,30.15,NNE,22,0.0,0.0,69,0.00,,CLR,0.00,VWS V14.01,2013-07-25 19:07:00,
2013-07-25 14:10:00,77.6,66.7,30.15,NE,45,0.0,3.0,69,0.00,,CLR,0.00,VWS V14.01,2013-07-25 19:10:00,
2013-07-25 14:12:00,77.6,66.7,30.15,NE,45,2.7,3.5,69,0.00,,CLR,0.00,VWS V14.01,2013-07-25 19:12:00,
2013-07-25 14:15:00,77.8,66.8,30.12,NE,45,0.0,0.0,69,0.00,,CLR,0.00,VWS V14.01,2013-07-25 19:15:00,
2013-07-25 14:17:00,77.6,66.7,30.12,NE,45,0.0,0.0,69,0.00,,CLR,0.00,VWS V14.01,2013-07-25 19:17:00,
2013-07-25 14:20:00,77.8,67.7,30.12,ENE,68,6.7,7.6,71,0.00,,CLR,0.00,VWS V14.01,2013-07-25 19:20:00,
2013-07-25 14:22:00,77.8,67.7,30.12,ENE,68,5.4,7.6,71,0.00,,CLR,0.00,VWS V14.01,2013-07-25 19:22:00,
2013-07-25 14:25:00,77.8,66.4,30.12,ENE,68,0.0,0.0,68,0.00,,CLR,0.00,VWS V14.01,2013-07-25 19:25:00,
2013-07-25 14:27:00,78.0,67.0,30.12,NE,45,6.3,7.0,69,0.00,,CLR,0.00,VWS V14.01,2013-07-25 19:27:00,
2013-07-25 14:30:00,77.8,65.1,30.12,ENE,68,1.8,4.5,65,0.00,,CLR,0.00,VWS V14.01,2013-07-25 19:30:00,
2013-07-25 14:32:00,77.8,66.0,30.12,NNE,22,2.7,4.5,67,0.00,,CLR,0.00,VWS V14.01,2013-07-25 19:32:00,
2013-07-25 14:35:00,77.4,66.1,30.12,NNW,338,2.2,5.0,68,0.00,,CLR,0.00,VWS V14.01,2013-07-25 19:35:00,
2013-07-25 14:37:00,77.4,66.1,30.12,NNW,338,0.0,3.5,68,0.00,,CLR,0.00,VWS V14.01,2013-07-25 19:37:00,
2013-07-25 14:40:00,77.6,66.7,30.12,NNW,338,0.0,0.0,69,0.00,,OVC006,0.00,VWS V14.01,2013-07-25 19:40:00,
2013-07-25 14:42:00,77.6,66.7,30.12,NNE,22,0.0,0.0,69,0.00,,CLR,0.00,VWS V14.01,2013-07-25 19:42:00,
2013-07-25 14:45:00,78.0,67.4,30.12,ENE,68,4.0,5.5,70,0.00,,CLR,0.00,VWS V14.01,2013-07-25 19:45:00,
2013-07-25 14:47:00,78.0,67.4,30.12,ENE,68,0.0,4.5,70,0.00,,CLR,0.00,VWS V14.01,2013-07-25 19:47:00,
2013-07-25 14:50:00,78.0,67.0,30.12,SW,225,0.0,0.0,69,0.00,,CLR,0.00,VWS V14.01,2013-07-25 19:50:00,
2013-07-25 14:52:00,77.8,66.0,30.12,WSW,248,4.0,4.5,67,0.00,,CLR,0.00,VWS V14.01,2013-07-25 19:52:00,
2013-07-25 14:55:00,77.8,67.2,30.12,NNE,22,7.6,8.6,70,0.00,,CLR,0.00,VWS V14.01,2013-07-25 19:55:00,
2013-07-25 14:58:00,78.0,66.6,30.12,WNW,292,0.0,8.6,68,0.00,,CLR,0.00,VWS V14.01,2013-07-25 19:58:00,
2013-07-25 15:00:00,77.8,65.5,30.12,WSW,248,4.5,5.0,66,0.00,,CLR,0.00,VWS V14.01,2013-07-25 20:00:00,
2013-07-25 15:03:00,77.8,65.5,30.12,NE,45,1.8,3.0,66,0.00,,CLR,0.00,VWS V14.01,2013-07-25 20:03:00,
2013-07-25 15:05:00,77.6,66.2,30.12,East,90,2.2,4.5,68,0.00,,CLR,0.00,VWS V14.01,2013-07-25 20:05:00,
2013-07-25 15:08:00,77.6,66.2,30.12,East,90,0.0,2.5,68,0.00,,CLR,0.00,VWS V14.01,2013-07-25 20:08:00,
2013-07-25 15:10:00,77.3,65.0,30.12,SSW,202,2.2,3.0,66,0.00,,CLR,0.00,VWS V14.01,2013-07-25 20:10:00,
2013-07-25 15:13:00,77.3,65.5,30.12,SSW,202,0.0,0.0,67,0.00,,CLR,0.00,VWS V14.01,2013-07-25 20:13:00,
2013-07-25 15:15:00,77.6,66.2,30.12,WSW,248,0.0,0.0,68,0.00,,CLR,0.00,VWS V14.01,2013-07-25 20:15:00,
2013-07-25 15:18:00,77.6,67.1,30.12,North,0,2.7,3.0,70,0.00,,CLR,0.00,VWS V14.01,2013-07-25 20:18:00,
2013-07-25 15:20:00,77.6,65.8,30.12,SSW,202,0.0,3.5,67,0.00,,CLR,0.00,VWS V14.01,2013-07-25 20:20:00,
2013-07-25 15:23:00,77.6,66.2,30.12,WNW,292,2.2,3.0,68,0.00,,CLR,0.00,VWS V14.01,2013-07-25 20:23:00,
2013-07-25 15:25:00,77.6,66.7,30.12,North,0,1.8,2.5,69,0.00,,CLR,0.00,VWS V14.01,2013-07-25 20:25:00,
2013-07-25 15:28:00,77.6,66.7,30.12,NNE,22,4.9,6.5,69,0.00,,CLR,0.00,VWS V14.01,2013-07-25 20:28:00,
2013-07-25 15:30:00,77.4,66.1,30.12,NNE,22,4.0,5.5,68,0.00,,CLR,0.00,VWS V14.01,2013-07-25 20:30:00,
2013-07-25 15:33:00,77.4,66.1,30.12,NNE,22,2.2,3.0,68,0.00,,CLR,0.00,VWS V14.01,2013-07-25 20:33:00,
2013-07-25 15:35:00,77.3,66.3,30.12,NNW,338,4.0,5.0,69,0.00,,CLR,0.00,VWS V14.01,2013-07-25 20:35:00,
2013-07-25 15:38:00,77.3,65.9,30.12,NNW,338,4.0,4.5,68,0.00,,CLR,0.00,VWS V14.01,2013-07-25 20:38:00,
2013-07-25 15:40:00,77.3,65.9,30.12,NNW,338,6.7,7.6,68,0.00,,CLR,0.00,VWS V14.01,2013-07-25 20:40:00,
2013-07-25 15:43:00,77.1,65.7,30.12,East,90,1.8,5.5,68,0.00,,CLR,0.00,VWS V14.01,2013-07-25 20:43:00,
2013-07-25 15:45:00,77.1,65.7,30.12,East,90,0.0,0.0,68,0.00,,CLR,0.00,VWS V14.01,2013-07-25 20:45:00,
2013-07-25 15:48:00,77.3,65.5,30.12,East,90,0.0,0.0,67,0.00,,CLR,0.00,VWS V14.01,2013-07-25 20:48:00,
2013-07-25 15:50:00,77.4,66.1,30.12,ESE,112,0.0,3.0,68,0.00,,CLR,0.00,VWS V14.01,2013-07-25 20:50:00,
2013-07-25 15:53:00,77.3,65.9,30.12,ESE,112,0.0,0.0,68,0.00,,CLR,0.00,VWS V14.01,2013-07-25 20:53:00,
2013-07-25 15:55:00,77.3,65.9,30.12,ESE,112,0.0,2.0,68,0.00,,CLR,0.00,VWS V14.01,2013-07-25 20:55:00,
2013-07-25 15:58:00,77.3,66.7,30.12,East,90,1.8,2.0,70,0.00,,CLR,0.00,VWS V14.01,2013-07-25 20:58:00,
2013-07-25 16:00:00,77.3,67.1,30.12,East,90,0.0,3.0,71,0.00,,CLR,0.00,VWS V14.01,2013-07-25 21:00:00,
2013-07-25 16:03:00,77.3,66.7,30.12,NE,45,2.2,2.5,70,0.00,,CLR,0.00,VWS V14.01,2013-07-25 21:03:00,
2013-07-25 16:05:00,77.1,66.1,30.12,NE,45,0.0,0.0,69,0.00,,CLR,0.00,VWS V14.01,2013-07-25 21:05:00,
2013-07-25 16:09:00,77.1,66.1,30.12,ENE,68,0.0,0.0,69,0.00,,CLR,0.00,VWS V14.01,2013-07-25 21:09:00,
2013-07-25 16:10:00,77.3,66.3,30.12,SSW,202,0.0,2.0,69,0.00,,CLR,0.00,VWS V14.01,2013-07-25 21:10:00,
2013-07-25 16:14:00,77.3,65.9,30.12,East,90,0.0,0.0,68,0.00,,CLR,0.00,VWS V14.01,2013-07-25 21:14:00,
2013-07-25 16:15:00,77.3,65.9,30.09,East,90,0.0,0.0,68,0.00,,CLR,0.00,VWS V14.01,2013-07-25 21:15:00,
2013-07-25 16:19:00,77.3,66.3,30.09,East,90,0.0,0.0,69,0.00,,CLR,0.00,VWS V14.01,2013-07-25 21:19:00,
2013-07-25 16:20:00,77.1,66.6,30.09,East,90,0.0,0.0,70,0.00,,CLR,0.00,VWS V14.01,2013-07-25 21:20:00,
2013-07-25 16:24:00,77.1,66.1,30.09,East,90,0.0,0.0,69,0.00,,CLR,0.00,VWS V14.01,2013-07-25 21:24:00,
2013-07-25 16:25:00,77.3,66.3,30.09,East,90,0.0,0.0,69,0.00,,CLR,0.00,VWS V14.01,2013-07-25 21:25:00,
2013-07-25 16:29:00,77.3,67.5,30.09,East,90,0.0,0.0,72,0.00,,CLR,0.00,VWS V14.01,2013-07-25 21:29:00,
2013-07-25 16:30:00,77.3,67.9,30.09,East,90,0.0,0.0,73,0.00,,CLR,0.00,VWS V14.01,2013-07-25 21:30:00,
2013-07-25 16:34:00,77.1,67.4,30.09,East,90,0.0,0.0,72,0.00,,CLR,0.00,VWS V14.01,2013-07-25 21:34:00,
2013-07-25 16:35:00,77.1,67.8,30.09,East,90,0.0,0.0,73,0.00,,CLR,0.00,VWS V14.01,2013-07-25 21:35:00,
2013-07-25 16:39:00,77.1,68.2,30.09,East,90,0.0,0.0,74,0.00,,CLR,0.00,VWS V14.01,2013-07-25 21:39:00,
2013-07-25 16:40:00,77.1,67.8,30.09,East,90,0.0,0.0,73,0.00,,OVC006,0.00,VWS V14.01,2013-07-25 21:40:00,
2013-07-25 16:44:00,77.1,68.2,30.09,East,90,0.0,0.0,74,0.00,,CLR,0.00,VWS V14.01,2013-07-25 21:44:00,
2013-07-25 16:45:00,77.1,68.2,30.09,East,90,0.0,0.0,74,0.00,,CLR,0.00,VWS V14.01,2013-07-25 21:45:00,
2013-07-25 16:49:00,77.1,68.6,30.09,East,90,0.0,0.0,75,0.00,,CLR,0.00,VWS V14.01,2013-07-25 21:49:00,
2013-07-25 16:50:00,77.1,68.2,30.09,NE,45,0.0,0.0,74,0.00,,CLR,0.00,VWS V14.01,2013-07-25 21:50:00,
2013-07-25 16:54:00,77.1,68.2,30.09,NE,45,0.0,0.0,74,0.00,,CLR,0.00,VWS V14.01,2013-07-25 21:54:00,
2013-07-25 16:55:00,76.9,68.0,30.09,SW,225,0.0,0.0,74,0.00,,CLR,0.00,VWS V14.01,2013-07-25 21:55:00,
2013-07-25 16:59:00,76.7,67.8,30.09,SW,225,0.0,0.0,74,0.00,,CLR,0.00,VWS V14.01,2013-07-25 21:59:00,
2013-07-25 17:00:00,76.5,67.2,30.09,SW,225,0.0,0.0,73,0.00,,CLR,0.00,VWS V14.01,2013-07-25 22:00:00,
2013-07-25 17:04:00,76.5,67.2,30.09,SW,225,0.0,0.0,73,0.00,,CLR,0.00,VWS V14.01,2013-07-25 22:04:00,
2013-07-25 17:05:00,76.5,67.2,30.09,SE,135,0.0,0.0,73,0.00,,CLR,0.00,VWS V14.01,2013-07-25 22:05:00,
2013-07-25 17:09:00,76.5,67.6,30.09,SE,135,0.0,0.0,74,0.00,,CLR,0.00,VWS V14.01,2013-07-25 22:09:00,
2013-07-25 17:10:00,76.5,67.2,30.09,SE,135,0.0,0.0,73,0.00,,CLR,0.00,VWS V14.01,2013-07-25 22:10:00,
2013-07-25 17:15:00,76.5,67.2,30.09,SE,135,0.0,0.0,73,0.00,,CLR,0.00,VWS V14.01,2013-07-25 22:15:00,
2013-07-25 17:20:00,76.5,68.0,30.09,SE,135,0.0,0.0,75,0.00,,CLR,0.00,VWS V14.01,2013-07-25 22:20:00,
2013-07-25 17:25:00,76.4,67.5,30.09,SE,135,0.0,0.0,74,0.00,,CLR,0.00,VWS V14.01,2013-07-25 22:25:00,
2013-07-25 17:30:00,76.2,67.7,30.09,SE,135,0.0,0.0,75,0.00,,CLR,0.00,VWS V14.01,2013-07-25 22:30:00,
2013-07-25 17:35:00,76.4,68.6,30.09,SE,135,0.0,0.0,77,0.00,,CLR,0.00,VWS V14.01,2013-07-25 22:35:00,
2013-07-25 17:40:00,76.2,68.4,30.09,ESE,112,0.0,0.0,77,0.00,,CLR,0.00,VWS V14.01,2013-07-25 22:40:00,
2013-07-25 17:45:00,76.2,68.1,30.09,ESE,112,0.0,0.0,76,0.00,,CLR,0.00,VWS V14.01,2013-07-25 22:45:00,
2013-07-25 17:50:00,76.0,68.3,30.12,SE,135,0.0,0.0,77,0.00,,CLR,0.00,VWS V14.01,2013-07-25 22:50:00,
2013-07-25 17:55:00,75.8,68.1,30.12,SE,135,0.0,0.0,77,0.00,,CLR,0.00,VWS V14.01,2013-07-25 22:55:00,
2013-07-25 18:00:00,76.0,68.3,30.12,SE,135,0.0,0.0,77,0.00,,CLR,0.00,VWS V14.01,2013-07-25 23:00:00,
2013-07-25 18:05:00,75.8,68.1,30.09,SE,135,0.0,0.0,77,0.00,,OVC055,0.00,VWS V14.01,2013-07-25 23:05:00,
2013-07-25 18:10:00,75.8,68.5,30.09,SE,135,0.0,0.0,78,0.00,,OVC055,0.00,VWS V14.01,2013-07-25 23:10:00,
2013-07-25 18:15:00,75.6,68.3,30.09,SE,135,0.0,0.0,78,0.00,,OVC055,0.00,VWS V14.01,2013-07-25 23:15:00,
2013-07-25 18:20:00,75.5,68.5,30.09,SE,135,0.0,0.0,79,0.00,,OVC055,0.00,VWS V14.01,2013-07-25 23:20:00,
2013-07-25 18:25:00,75.3,68.7,30.09,SE,135,0.0,0.0,80,0.00,,OVC055,0.00,VWS V14.01,2013-07-25 23:25:00,
2013-07-25 18:30:00,75.3,68.7,30.09,SE,135,0.0,0.0,80,0.00,,OVC055,0.00,VWS V14.01,2013-07-25 23:30:00,
2013-07-25 18:35:00,75.1,68.9,30.09,SE,135,0.0,0.0,81,0.00,,OVC055,0.00,VWS V14.01,2013-07-25 23:35:00,
2013-07-25 18:40:00,74.9,68.7,30.09,SE,135,0.0,0.0,81,0.00,,OVC055,0.00,VWS V14.01,2013-07-25 23:40:00,
2013-07-25 18:45:00,74.9,68.7,30.09,SE,135,0.0,0.0,81,0.00,,CLR,0.00,VWS V14.01,2013-07-25 23:45:00,
2013-07-25 18:46:00,74.9,68.7,30.09,SE,135,0.0,0.0,81,0.00,,OVC055,0.00,VWS V14.01,2013-07-25 23:46:00,
2013-07-25 18:50:00,74.7,68.5,30.09,SE,135,0.0,0.0,81,0.00,,CLR,0.00,VWS V14.01,2013-07-25 23:50:00,
2013-07-25 18:51:00,74.7,68.9,30.09,SE,135,0.0,0.0,82,0.00,,OVC055,0.00,VWS V14.01,2013-07-25 23:51:00,
2013-07-25 18:55:00,74.7,68.9,30.09,SE,135,0.0,0.0,82,0.00,,CLR,0.00,VWS V14.01,2013-07-25 23:55:00,
2013-07-25 18:56:00,74.7,68.9,30.09,SE,135,0.0,0.0,82,0.00,,OVC055,0.00,VWS V14.01,2013-07-25 23:56:00,
2013-07-25 19:00:00,74.6,68.3,30.09,SE,135,0.0,0.0,81,0.00,,CLR,0.00,VWS V14.01,2013-07-26 00:00:00,
2013-07-25 19:01:00,74.6,68.3,30.09,SE,135,0.0,0.0,81,0.00,,CLR,0.00,VWS V14.01,2013-07-26 00:01:00,
2013-07-25 19:05:00,74.4,68.5,30.09,SE,135,0.0,0.0,82,0.00,,OVC006,0.00,VWS V14.01,2013-07-26 00:05:00,
2013-07-25 19:06:00,74.6,68.7,30.09,SE,135,0.0,0.0,82,0.00,,CLR,0.00,VWS V14.01,2013-07-26 00:06:00,
2013-07-25 19:10:00,74.4,68.5,30.09,SE,135,0.0,0.0,82,0.00,,CLR,0.00,VWS V14.01,2013-07-26 00:10:00,
2013-07-25 19:11:00,74.4,68.5,30.09,SE,135,0.0,0.0,82,0.00,,CLR,0.00,VWS V14.01,2013-07-26 00:11:00,
2013-07-25 19:15:00,74.2,68.0,30.09,SE,135,0.0,0.0,81,0.00,,CLR,0.00,VWS V14.01,2013-07-26 00:15:00,
2013-07-25 19:16:00,74.2,68.0,30.09,SE,135,0.0,0.0,81,0.00,,CLR,0.00,VWS V14.01,2013-07-26 00:16:00,
2013-07-25 19:20:00,74.0,68.2,30.09,SE,135,0.0,0.0,82,0.00,,CLR,0.00,VWS V14.01,2013-07-26 00:20:00,
2013-07-25 19:21:00,74.0,68.2,30.09,SE,135,0.0,0.0,82,0.00,,CLR,0.00,VWS V14.01,2013-07-26 00:21:00,
2013-07-25 19:25:00,73.8,68.0,30.09,SSE,158,0.0,0.0,82,0.00,,CLR,0.00,VWS V14.01,2013-07-26 00:25:00,
2013-07-25 19:26:00,73.8,68.0,30.09,SSE,158,0.0,0.0,82,0.00,,CLR,0.00,VWS V14.01,2013-07-26 00:26:00,
2013-07-25 19:30:00,73.5,68.0,30.12,SE,135,0.0,0.0,83,0.00,,CLR,0.00,VWS V14.01,2013-07-26 00:30:00,
2013-07-25 19:31:00,73.5,68.0,30.12,SE,135,0.0,0.0,83,0.00,,CLR,0.00,VWS V14.01,2013-07-26 00:31:00,
2013-07-25 19:35:00,73.3,68.2,30.12,SE,135,0.0,0.0,84,0.00,,OVC006,0.00,VWS V14.01,2013-07-26 00:35:00,
2013-07-25 19:36:00,73.3,68.2,30.12,SE,135,0.0,0.0,84,0.00,,CLR,0.00,VWS V14.01,2013-07-26 00:36:00,
2013-07-25 19:40:00,73.1,68.3,30.12,SE,135,0.0,0.0,85,0.00,,CLR,0.00,VWS V14.01,2013-07-26 00:40:00,
2013-07-25 19:41:00,73.1,68.3,30.12,SE,135,0.0,0.0,85,0.00,,CLR,0.00,VWS V14.01,2013-07-26 00:41:00,
2013-07-25 19:45:00,72.9,67.8,30.09,SE,135,0.0,0.0,84,0.00,,CLR,0.00,VWS V14.01,2013-07-26 00:45:00,
2013-07-25 19:46:00,72.9,67.8,30.09,SE,135,0.0,0.0,84,0.00,,CLR,0.00,VWS V14.01,2013-07-26 00:46:00,
2013-07-25 19:50:00,72.8,67.7,30.09,SE,135,0.0,0.0,84,0.00,,CLR,0.00,VWS V14.01,2013-07-26 00:50:00,
2013-07-25 19:52:00,72.8,67.7,30.09,SE,135,0.0,0.0,84,0.00,,CLR,0.00,VWS V14.01,2013-07-26 00:52:00,
2013-07-25 19:55:00,72.6,67.5,30.09,SE,135,0.0,0.0,84,0.00,,CLR,0.00,VWS V14.01,2013-07-26 00:55:00,
2013-07-25 19:57:00,72.6,67.5,30.09,SE,135,0.0,0.0,84,0.00,,CLR,0.00,VWS V14.01,2013-07-26 00:57:00,
2013-07-25 20:00:00,72.6,67.1,30.06,SE,135,0.0,0.0,83,0.00,,CLR,0.00,VWS V14.01,2013-07-26 01:00:00,
2013-07-25 20:02:00,72.6,67.1,30.06,SE,135,0.0,0.0,83,0.00,,CLR,0.00,VWS V14.01,2013-07-26 01:02:00,
2013-07-25 20:05:00,72.2,67.1,30.06,SE,135,0.0,0.0,84,0.00,,CLR,0.00,VWS V14.01,2013-07-26 01:05:00,
2013-07-25 20:07:00,72.2,67.1,30.06,SE,135,0.0,0.0,84,0.00,,CLR,0.00,VWS V14.01,2013-07-26 01:07:00,
2013-07-25 20:10:00,72.0,66.9,30.06,SE,135,0.0,0.0,84,0.00,,OVC006,0.00,VWS V14.01,2013-07-26 01:10:00,
2013-07-25 20:12:00,72.0,66.9,30.06,SE,135,0.0,0.0,84,0.00,,CLR,0.00,VWS V14.01,2013-07-26 01:12:00,
2013-07-25 20:15:00,71.9,66.8,30.06,SE,135,0.0,0.0,84,0.00,,CLR,0.00,VWS V14.01,2013-07-26 01:15:00,
2013-07-25 20:17:00,71.9,66.8,30.06,SE,135,0.0,0.0,84,0.00,,CLR,0.00,VWS V14.01,2013-07-26 01:17:00,
2013-07-25 20:20:00,71.7,66.2,30.06,SE,135,0.0,0.0,83,0.00,,CLR,0.00,VWS V14.01,2013-07-26 01:20:00,
2013-07-25 20:22:00,71.7,66.2,30.06,SE,135,0.0,0.0,83,0.00,,CLR,0.00,VWS V14.01,2013-07-26 01:22:00,
2013-07-25 20:25:00,71.5,66.4,30.06,SE,135,0.0,0.0,84,0.00,,CLR,0.00,VWS V14.01,2013-07-26 01:25:00,
2013-07-25 20:27:00,71.5,66.4,30.06,SE,135,0.0,0.0,84,0.00,,CLR,0.00,VWS V14.01,2013-07-26 01:27:00,
2013-07-25 20:30:00,71.3,66.2,30.09,SE,135,0.0,0.0,84,0.00,,CLR,0.00,VWS V14.01,2013-07-26 01:30:00,
2013-07-25 20:32:00,71.1,66.4,30.09,SE,135,0.0,0.0,85,0.00,,CLR,0.00,VWS V14.01,2013-07-26 01:32:00,
2013-07-25 20:35:00,71.0,66.2,30.09,SE,135,0.0,0.0,85,0.00,,CLR,0.00,VWS V14.01,2013-07-26 01:35:00,
2013-07-25 20:37:00,71.0,66.2,30.09,SE,135,0.0,0.0,85,0.00,,CLR,0.00,VWS V14.01,2013-07-26 01:37:00,
2013-07-25 20:40:00,70.8,66.1,30.09,SE,135,0.0,0.0,85,0.00,,CLR,0.00,VWS V14.01,2013-07-26 01:40:00,
2013-07-25 20:42:00,70.8,66.1,30.09,SE,135,0.0,0.0,85,0.00,,CLR,0.00,VWS V14.01,2013-07-26 01:42:00,
2013-07-25 20:45:00,70.8,66.1,30.06,SE,135,0.0,0.0,85,0.00,,CLR,0.00,VWS V14.01,2013-07-26 01:45:00,
2013-07-25 20:48:00,70.8,66.1,30.06,SE,135,0.0,0.0,85,0.00,,CLR,0.00,VWS V14.01,2013-07-26 01:48:00,
2013-07-25 20:50:00,70.6,65.9,30.06,SE,135,0.0,0.0,85,0.00,,CLR,0.00,VWS V14.01,2013-07-26 01:50:00,
2013-07-25 20:53:00,70.4,66.0,30.06,SE,135,0.0,0.0,86,0.00,,CLR,0.00,VWS V14.01,2013-07-26 01:53:00,
2013-07-25 20:55:00,70.2,65.9,30.06,SE,135,0.0,0.0,86,0.00,,CLR,0.00,VWS V14.01,2013-07-26 01:55:00,
2013-07-25 20:58:00,70.2,65.9,30.06,SE,135,0.0,0.0,86,0.00,,CLR,0.00,VWS V14.01,2013-07-26 01:58:00,
2013-07-25 21:00:00,70.2,65.9,30.09,SE,135,0.0,0.0,86,0.00,,CLR,0.00,VWS V14.01,2013-07-26 02:00:00,
2013-07-25 21:03:00,70.1,65.7,30.09,SE,135,0.0,0.0,86,0.00,,CLR,0.00,VWS V14.01,2013-07-26 02:03:00,
2013-07-25 21:05:00,70.1,65.7,30.09,SE,135,0.0,0.0,86,0.00,,CLR,0.00,VWS V14.01,2013-07-26 02:05:00,
2013-07-25 21:08:00,69.9,65.5,30.09,SE,135,0.0,0.0,86,0.00,,CLR,0.00,VWS V14.01,2013-07-26 02:08:00,
2013-07-25 21:10:00,69.9,65.8,30.09,SE,135,0.0,0.0,87,0.00,,CLR,0.00,VWS V14.01,2013-07-26 02:10:00,
2013-07-25 21:13:00,69.7,65.7,30.09,SE,135,0.0,0.0,87,0.00,,CLR,0.00,VWS V14.01,2013-07-26 02:13:00,
2013-07-25 21:15:00,69.5,65.5,30.09,SE,135,0.0,0.0,87,0.00,,CLR,0.00,VWS V14.01,2013-07-26 02:15:00,
2013-07-25 21:18:00,69.5,65.5,30.09,SE,135,0.0,0.0,87,0.00,,CLR,0.00,VWS V14.01,2013-07-26 02:18:00,
2013-07-25 21:20:00,69.3,65.3,30.09,SE,135,0.0,0.0,87,0.00,,CLR,0.00,VWS V14.01,2013-07-26 02:20:00,
2013-07-25 21:23:00,69.3,65.3,30.09,SE,135,0.0,0.0,87,0.00,,CLR,0.00,VWS V14.01,2013-07-26 02:23:00,
2013-07-25 21:25:00,69.3,65.6,30.09,SE,135,0.0,0.0,88,0.00,,CLR,0.00,VWS V14.01,2013-07-26 02:25:00,
2013-07-25 21:28:00,69.2,65.5,30.09,SE,135,0.0,0.0,88,0.00,,CLR,0.00,VWS V14.01,2013-07-26 02:28:00,
2013-07-25 21:30:00,69.0,65.3,30.12,SE,135,0.0,0.0,88,0.00,,CLR,0.00,VWS V14.01,2013-07-26 02:30:00,
2013-07-25 21:33:00,68.8,65.4,30.12,SE,135,0.0,0.0,89,0.00,,CLR,0.00,VWS V14.01,2013-07-26 02:33:00,
2013-07-25 21:35:00,68.8,65.4,30.12,SE,135,0.0,0.0,89,0.00,,CLR,0.00,VWS V14.01,2013-07-26 02:35:00,
2013-07-25 21:38:00,68.8,65.4,30.12,SE,135,0.0,0.0,89,0.00,,CLR,0.00,VWS V14.01,2013-07-26 02:38:00,
2013-07-25 21:40:00,68.6,65.2,30.12,SE,135,0.0,0.0,89,0.00,,CLR,0.00,VWS V14.01,2013-07-26 02:40:00,
2013-07-25 21:43:00,68.6,65.2,30.12,SE,135,0.0,0.0,89,0.00,,CLR,0.00,VWS V14.01,2013-07-26 02:43:00,
2013-07-25 21:45:00,68.4,65.4,30.12,SE,135,0.0,0.0,90,0.00,,OVC006,0.00,VWS V14.01,2013-07-26 02:45:00,
2013-07-25 21:48:00,68.4,65.4,30.12,SE,135,0.0,0.0,90,0.00,,CLR,0.00,VWS V14.01,2013-07-26 02:48:00,
2013-07-25 21:49:00,68.4,65.4,30.12,SE,135,0.0,0.0,90,0.00,,CLR,0.00,VWS V14.01,2013-07-26 02:49:00,
2013-07-25 21:50:00,68.4,65.1,30.12,SE,135,0.0,0.0,89,0.00,,CLR,0.00,VWS V14.01,2013-07-26 02:50:00,
2013-07-25 21:54:00,68.3,65.2,30.12,SE,135,0.0,0.0,90,0.00,,CLR,0.00,VWS V14.01,2013-07-26 02:54:00,
2013-07-25 21:55:00,68.3,65.2,30.12,SE,135,0.0,0.0,90,0.00,,CLR,0.00,VWS V14.01,2013-07-26 02:55:00,
2013-07-25 21:59:00,68.1,65.4,30.12,SE,135,0.0,0.0,91,0.00,,CLR,0.00,VWS V14.01,2013-07-26 02:59:00,
2013-07-25 22:00:00,67.9,65.2,30.12,SE,135,0.0,0.0,91,0.00,,CLR,0.00,VWS V14.01,2013-07-26 03:00:00,
2013-07-25 22:04:00,67.9,65.2,30.12,SE,135,0.0,0.0,91,0.00,,CLR,0.00,VWS V14.01,2013-07-26 03:04:00,
2013-07-25 22:05:00,67.9,65.2,30.12,SE,135,0.0,0.0,91,0.00,,OVC006,0.00,VWS V14.01,2013-07-26 03:05:00,
2013-07-25 22:09:00,67.9,65.2,30.12,SE,135,0.0,0.0,91,0.00,,CLR,0.00,VWS V14.01,2013-07-26 03:09:00,
2013-07-25 22:10:00,67.9,65.2,30.12,SE,135,0.0,0.0,91,0.00,,CLR,0.00,VWS V14.01,2013-07-26 03:10:00,
2013-07-25 22:14:00,67.9,65.2,30.12,SE,135,0.0,0.0,91,0.00,,CLR,0.00,VWS V14.01,2013-07-26 03:14:00,
2013-07-25 22:15:00,67.7,65.0,30.12,SE,135,0.0,0.0,91,0.00,,CLR,0.00,VWS V14.01,2013-07-26 03:15:00,
2013-07-25 22:20:00,67.7,65.0,30.12,SE,135,0.0,0.0,91,0.00,,CLR,0.00,VWS V14.01,2013-07-26 03:20:00,
2013-07-25 22:25:00,67.5,65.1,30.12,SE,135,0.0,0.0,92,0.00,,CLR,0.00,VWS V14.01,2013-07-26 03:25:00,
2013-07-25 22:30:00,67.4,65.0,30.12,SE,135,0.0,0.0,92,0.00,,CLR,0.00,VWS V14.01,2013-07-26 03:30:00,
2013-07-25 22:35:00,67.2,65.1,30.12,SE,135,0.0,0.0,93,0.00,,CLR,0.00,VWS V14.01,2013-07-26 03:35:00,
2013-07-25 22:40:00,67.4,65.0,30.12,SE,135,0.0,0.0,92,0.00,,CLR,0.00,VWS V14.01,2013-07-26 03:40:00,
2013-07-25 22:41:00,67.2,64.8,30.12,SE,135,0.0,0.0,92,0.00,,CLR,0.00,VWS V14.01,2013-07-26 03:41:00,
2013-07-25 22:45:00,67.2,65.1,30.09,SE,135,0.0,0.0,93,0.00,,CLR,0.00,VWS V14.01,2013-07-26 03:45:00,
2013-07-25 22:46:00,67.2,65.1,30.09,SE,135,0.0,0.0,93,0.00,,CLR,0.00,VWS V14.01,2013-07-26 03:46:00,
2013-07-25 22:50:00,67.0,64.9,30.09,SE,135,0.0,0.0,93,0.00,,OVC006,0.00,VWS V14.01,2013-07-26 03:50:00,
2013-07-25 22:51:00,67.0,64.9,30.09,SE,135,0.0,0.0,93,0.00,,CLR,0.00,VWS V14.01,2013-07-26 03:51:00,
2013-07-25 22:55:00,67.2,65.1,30.09,SE,135,0.0,0.0,93,0.00,,CLR,0.00,VWS V14.01,2013-07-26 03:55:00,
2013-07-25 22:56:00,67.2,65.1,30.09,SE,135,0.0,0.0,93,0.00,,CLR,0.00,VWS V14.01,2013-07-26 03:56:00,
2013-07-25 23:00:00,67.2,65.4,30.09,SE,135,0.0,0.0,94,0.00,,CLR,0.00,VWS V14.01,2013-07-26 04:00:00,
2013-07-25 23:01:00,67.2,65.4,30.09,SE,135,0.0,0.0,94,0.00,,CLR,0.00,VWS V14.01,2013-07-26 04:01:00,
2013-07-25 23:02:00,67.2,65.4,30.09,SE,135,0.0,0.0,94,0.00,,CLR,0.00,VWS V14.01,2013-07-26 04:02:00,
2013-07-25 23:03:00,67.2,65.1,30.09,ESE,112,0.0,0.0,93,0.00,,CLR,0.00,VWS V14.01,2013-07-26 04:03:00,
2013-07-25 23:05:00,67.2,65.1,30.09,ESE,112,0.0,0.0,93,0.00,,CLR,0.00,VWS V14.01,2013-07-26 04:05:00,
2013-07-25 23:08:00,67.2,65.4,30.09,ENE,68,0.0,0.0,94,0.00,,CLR,0.00,VWS V14.01,2013-07-26 04:08:00,
2013-07-25 23:10:00,67.2,65.1,30.09,East,90,0.0,2.0,93,0.00,,CLR,0.00,VWS V14.01,2013-07-26 04:10:00,
2013-07-25 23:13:00,67.2,65.1,30.09,East,90,0.0,0.0,93,0.00,,CLR,0.00,VWS V14.01,2013-07-26 04:13:00,
2013-07-25 23:15:00,67.2,64.8,30.09,East,90,0.0,0.0,92,0.00,,CLR,0.00,VWS V14.01,2013-07-26 04:15:00,
2013-07-25 23:18:00,67.2,64.8,30.09,East,90,0.0,0.0,92,0.00,,CLR,0.00,VWS V14.01,2013-07-26 04:18:00,
2013-07-25 23:20:00,67.2,64.8,30.09,East,90,0.0,0.0,92,0.00,,CLR,0.00,VWS V14.01,2013-07-26 04:20:00,
2013-07-25 23:23:00,67.2,64.8,30.09,East,90,0.0,0.0,92,0.00,,CLR,0.00,VWS V14.01,2013-07-26 04:23:00,
2013-07-25 23:25:00,67.2,64.8,30.09,East,90,0.0,0.0,92,0.00,,CLR,0.00,VWS V14.01,2013-07-26 04:25:00,
2013-07-25 23:28:00,67.0,64.6,30.09,East,90,0.0,0.0,92,0.00,,CLR,0.00,VWS V14.01,2013-07-26 04:28:00,
2013-07-25 23:30:00,67.0,64.3,30.09,East,90,0.0,0.0,91,0.00,,CLR,0.00,VWS V14.01,2013-07-26 04:30:00,
2013-07-25 23:33:00,67.0,64.6,30.09,East,90,0.0,0.0,92,0.00,,CLR,0.00,VWS V14.01,2013-07-26 04:33:00,
2013-07-25 23:35:00,67.0,64.6,30.09,East,90,0.0,0.0,92,0.00,,OVC006,0.00,VWS V14.01,2013-07-26 04:35:00,
2013-07-25 23:39:00,67.0,64.6,30.09,East,90,0.0,0.0,92,0.00,,CLR,0.00,VWS V14.01,2013-07-26 04:39:00,
2013-07-25 23:40:00,67.0,64.6,30.09,East,90,0.0,0.0,92,0.00,,OVC006,0.00,VWS V14.01,2013-07-26 04:40:00,
2013-07-25 23:44:00,66.8,64.4,30.09,East,90,0.0,0.0,92,0.00,,CLR,0.00,VWS V14.01,2013-07-26 04:44:00,
2013-07-25 23:45:00,66.8,64.4,30.09,East,90,0.0,0.0,92,0.00,,CLR,0.00,VWS V14.01,2013-07-26 04:45:00,
2013-07-25 23:49:00,66.8,64.7,30.09,East,90,0.0,0.0,93,0.00,,CLR,0.00,VWS V14.01,2013-07-26 04:49:00,
2013-07-25 23:50:00,66.8,64.4,30.09,East,90,0.0,0.0,92,0.00,,OVC006,0.00,VWS V14.01,2013-07-26 04:50:00,
2013-07-25 23:54:00,66.8,64.4,30.09,East,90,0.0,0.0,92,0.00,,CLR,0.00,VWS V14.01,2013-07-26 04:54:00,
2013-07-25 23:55:00,66.8,64.4,30.09,East,90,0.0,0.0,92,0.00,,CLR,0.00,VWS V14.01,2013-07-26 04:55:00,
2013-07-25 23:59:00,66.8,64.4,30.09,East,90,0.0,0.0,92,0.00,,CLR,0.00,VWS V14.01,2013-07-26 04:59:00,